Location: StarGlider Observatory
(40.6275°N, 79.9767°W)
Time: 23:50:42
(UTC-04:00)

Envisat - Visible Passes

Search period start: 21 June 2018 00:00
Search period end: 01 July 2018 00:00
Orbit: 764 x 766 km, 98.2° (Epoch: 21 June)

Date Brightness Start Highest point End Pass type
(mag) Time Alt. Az. Time Alt. Az. Time Alt. Az.
22 Jun 5.5 21:47:52 10° SW 21:51:19 18° W 21:54:47 10° NW visible
25 Jun 5.3 21:36:04 10° SW 21:40:03 23° W 21:44:04 10° NW visible
27 Jun 5.7 22:03:38 10° WSW 22:05:53 13° W 22:08:10 10° WNW visible
28 Jun 4.9 21:24:26 10° SSW 21:28:49 29° W 21:33:13 10° NW visible
30 Jun 5.6 21:51:26 10° SW 21:54:36 17° W 21:57:48 10° NW visible
